Wetbulb
75.01 76.96 76.41 77.16 77.32 76.89 76.81 76.92 77.16 76.78 76.63 76.80 77.53 77.24 76.87 76.90 77.09 77.33 77.27 77.31 77.45 77.54 77.35 77.11 77.44 77.58 77.42 77.20 77.20 76.99 76.96 77.20 76.98 77.16 77.02 76.94 76.61 76.50 76.48 76.39 76.41 76.84 76.94
76.09 76.85 76.59 77.12 77.10 76.71 76.65 76.72 76.82 76.94 76.40 76.56 76.89 76.68 76.57 76.38 76.38 76.78 77.36 77.14 76.98 76.82 76.74 76.87 76.93 77.03 76.79 76.63 76.78 76.80 76.90 76.81 76.67 76.85 76.76 76.79 76.63 76.38 76.55 75.90 75.82 77.28 76.65
76.02 76.87 77.12 76.85 77.31 77.09 76.48 76.51 76.47 76.86 76.43 76.29 76.29 76.40 76.49 76.65 76.80 77.04 76.70 76.56 76.59 76.46 76.26 76.38 76.30 75.85 75.35 75.30 75.38 76.10 76.29 76.21 76.43 76.30 76.02 76.36 76.53 76.43 76.36 76.16 75.98 76.69 76.63
76.41 76.44 77.20 76.85 77.18 77.14 76.91 76.67 76.31 76.62 76.32 75.88 75.69 75.66 76.10 76.56 76.43 76.16 75.91 75.60 75.71 75.60 75.44 75.07 74.93 74.65 74.77 74.91 75.05 74.88 74.41 74.52 75.02 74.99 77.17 76.39 75.55 76.66 76.85 76.34 76.67 76.60 76.43
76.41 76.10 77.10 76.90 77.12 76.80 76.68 76.74 76.53 76.37 76.02 75.77 75.96 75.91 76.01 75.85 75.77 75.82 75.71 75.79 75.90 75.38 74.96 74.88 74.88 74.99 74.96 74.63 74.44 74.33 74.27 74.05 74.29 75.57 76.03 77.30 77.03 76.56 76.45 76.47 76.46 76.68 76.48
74.73 77.19 76.96 76.96 76.72 76.53 76.46 76.47 76.29 76.18 75.99 75.85 75.44 75.52 75.24 75.52 75.65 75.32 75.16 75.16 75.60 76.12 76.26 76.24 76.21 76.02 75.91 75.63 75.35 75.08 74.25 74.41 74.85 76.09 76.73 76.72 76.67 75.60 76.20 76.28 75.66 76.46 76.84
73.23 75.47 77.43 77.36 77.26 76.82 76.88 76.66 76.34 76.04 75.60 75.35 75.13 75.24 75.57 76.04 76.17 76.20 76.28 76.70 76.42 76.12 76.10 76.21 75.93 76.07 75.96 76.02 76.07 76.25 76.68 76.72 75.75 75.81 76.02 76.39 76.51 75.54 75.87 76.39 76.40 76.44 76.46
71.93 73.82 76.00 77.43 76.30 76.65 77.29 76.53 76.78 76.70 76.12 75.79 75.90 76.07 76.29 76.12 76.39 76.33 76.17 76.18 76.07 76.18 76.10 76.02 76.24 76.43 76.73 76.87 76.84 76.89 77.01 77.06 76.31 75.52 75.69 76.45 76.29 74.92 74.98 76.07 76.22 76.38 76.14
72.02 73.29 75.83 77.17 76.92 76.08 75.92 76.69 76.80 76.64 76.11 76.19 76.00 76.03 76.36 76.39 76.07 75.91 75.85 75.68 75.55 75.91 76.24 76.73 77.15 77.28 77.50 77.55 77.57 77.59 77.67 77.40 77.43 76.44 76.16 75.97 76.51 75.32 75.71 76.04 76.07 75.77 75.59
72.12 72.52 74.17 76.20 76.65 77.11 76.75 76.10 76.13 76.12 76.42 76.42 76.29 76.07 76.04 76.24 76.13 76.02 76.46 76.65 76.56 77.22 77.52 77.67 77.70 78.16 78.28 78.21 78.05 78.11 78.21 78.34 77.78 76.71 76.45 76.73 76.77 76.11 75.82 75.65 76.51 75.57 74.51
71.33 72.38 73.76 75.58 76.69 77.21 77.73 77.43 76.24 76.43 76.27 76.60 77.02 76.56 76.56 77.42 77.67 77.81 77.77 77.10 77.01 77.89 78.53 78.97 78.74 78.83 79.04 79.24 79.39 78.80 78.27 78.38 78.15 77.26 76.42 76.44 75.75 76.05 75.75 76.59 76.81 75.69 73.91
70.70 71.69 72.85 75.02 75.68 76.62 75.87 77.11 77.04 77.01 76.88 77.29 77.05 76.91 77.36 78.23 78.77 77.81 78.24 78.04 78.17 78.59 78.72 79.34 79.25 79.41 79.05 79.17 79.60 78.98 78.76 78.48 78.15 77.25 77.40 75.92 75.39 75.89 76.07 76.44 77.36 76.76 74.94
70.92 71.39 72.62 74.62 75.76 75.66 75.61 76.41 75.78 75.83 76.47 76.45 76.64 77.15 77.91 78.59 79.28 79.01 79.25 79.62 80.08 80.05 79.82 79.70 80.41 79.21 78.70 79.07 78.81 78.94 79.25 79.13 78.58 78.15 78.48 75.00 74.53 74.70 76.11 76.41 77.08 77.66 76.16
71.12 71.32 72.02 74.44 75.96 76.03 76.12 75.43 76.12 75.40 76.28 76.24 77.77 78.20 78.52 78.26 79.62 79.38 79.29 79.15 79.10 78.93 79.57 79.52 78.88 79.66 79.48 79.59 79.33 79.44 79.12 78.58 78.49 78.31 78.87 75.81 74.54 74.18 74.50 75.48 76.45 76.56 75.44
71.87 72.36 72.61 74.11 75.94 76.07 76.59 75.58 76.06 76.35 76.07 77.79 77.29 77.99 78.46 78.17 78.61 79.12 79.68 79.43 79.38 79.64 79.17 79.29 78.84 78.95 78.57 78.61 79.01 79.21 78.04 77.76 77.78 77.79 77.69 77.18 75.44 74.75 74.90 75.19 75.13 75.99 75.99
73.88 73.63 73.62 73.69 75.55 76.26 76.20 76.77 76.73 77.03 78.07 77.18 77.65 78.32 78.68 78.69 79.21 79.05 79.21 78.87 78.92 79.02 78.68 78.90 78.38 78.43 77.92 78.26 77.77 77.83 77.87 77.95 77.42 77.29 77.47 78.44 75.94 74.56 74.81 75.00 75.69 76.19 75.58
74.30 74.73 74.20 74.37 74.82 76.10 76.65 77.15 77.29 77.78 78.02 78.03 78.21 78.96 79.46 79.80 79.66 79.97 79.10 78.88 79.23 78.61 79.30 78.91 79.26 78.44 76.87 76.66 76.89 76.77 77.10 77.76 77.55 77.77 78.13 77.68 78.20 75.02 74.26 74.43 75.20 74.34 74.52
74.62 74.77 75.24 73.95 74.62 76.09 76.81 77.25 77.36 77.86 78.26 78.63 79.23 79.48 79.67 79.93 80.44 80.31 79.07 79.35 79.41 78.98 78.94 78.71 78.11 77.19 76.55 76.24 76.11 76.52 76.48 76.58 76.99 77.54 77.05 78.16 78.23 78.57 74.81 73.73 71.46 71.29 71.30
75.23 75.34 75.60 75.73 75.14 76.20 77.49 77.67 77.81 78.16 78.15 78.82 79.32 79.65 79.77 79.48 79.58 80.07 79.16 80.35 80.60 78.73 79.02 77.90 77.21 77.74 76.57 76.12 75.85 76.22 76.39 76.33 76.49 76.62 77.71 78.01 78.36 77.86 76.65 71.29 70.99 71.34 71.32
75.28 76.12 76.13 76.32 76.90 77.56 77.26 77.84 76.96 77.08 77.75 78.72 78.42 79.11 80.19 80.05 80.37 80.11 79.07 80.30 80.23 78.29 77.48 77.98 78.78 78.34 76.88 76.53 75.70 75.40 76.06 76.33 76.61 76.80 77.11 77.61 77.74 76.45 75.70 74.98 75.67 73.73 71.08
74.79 75.49 76.29 76.14 77.38 77.22 76.68 75.78 75.47 75.07 76.01 77.01 77.73 79.18 80.12 80.20 80.37 80.75 78.63 79.38 79.88 79.04 78.81 78.91 78.10 77.26 76.46 77.25 74.71 74.49 74.73 76.65 76.50 76.20 77.26 76.42 76.64 77.17 76.38 75.38 74.91 73.71 73.02
73.76 75.11 76.07 76.50 77.27 77.28 76.66 76.91 76.53 76.44 76.46 76.91 77.56 79.59 80.26 80.44 80.49 80.37 80.35 79.32 79.29 78.06 79.60 78.87 79.06 76.33 76.38 77.10 74.26 73.41 69.57 72.26 73.38 76.09 77.22 75.88 76.04 75.92 75.21 74.45 73.24 72.65 73.29
73.17 74.33 75.42 76.69 77.07 77.82 77.82 77.32 77.55 77.59 77.16 75.96 76.93 77.73 79.42 80.19 80.38 80.68 80.73 80.44 80.57 80.13 76.94 79.92 78.99 78.87 76.12 76.29 77.43 73.86 69.86 68.10 71.40 75.56 76.19 75.78 74.88 74.65 73.81 74.18 72.69 71.85 71.93
73.05 74.45 75.88 76.82 77.16 77.74 78.55 78.37 77.85 74.86 74.27 74.52 75.84 77.32 79.19 79.97 79.85 80.09 80.63 81.18 81.44 79.54 79.78 79.18 79.61 79.24 79.59 75.42 76.21 78.34 77.64 76.00 70.50 69.79 73.91 76.40 75.64 73.78 73.01 72.53 72.05 72.27 72.27
73.49 73.88 75.15 76.67 77.30 77.93 78.36 78.39 76.97 76.37 75.47 76.26 76.05 77.77 79.47 80.06 80.50 79.89 79.90 81.26 80.99 80.32 80.23 80.57 81.05 79.95 78.06 77.53 74.90 75.55 76.29 73.89 75.85 72.64 70.04 71.89 73.41 73.83 72.42 70.41 71.82 70.50 71.12
73.77 73.96 74.54 76.02 77.43 77.86 77.99 78.22 78.06 77.36 76.67 75.84 76.54 75.97 76.24 76.81 77.60 79.16 79.71 80.17 81.09 80.83 80.56 80.25 81.37 81.17 79.37 78.45 77.10 76.85 75.08 73.69 71.46 74.03 71.96 71.67 71.20 71.47 70.26 70.76 69.71 69.36 70.38
MSLP
1013.93 1014.65 1015.55 1015.55 1015.81 1016.11 1016.37 1016.52 1016.66 1016.89 1017.13 1017.30 1017.40 1017.43 1017.53 1017.55 1017.69 1017.96 1017.89 1017.85 1017.97 1018.02 1018.04 1018.11 1018.15 1018.21 1018.22 1018.24 1018.29 1018.28 1018.19 1018.17 1018.15 1018.11 1018.08 1018.03 1018.13 1018.16 1018.12 1018.24 1017.80 1017.42 1018.41
1013.88 1014.57 1015.73 1015.76 1016.00 1016.34 1016.63 1016.81 1016.99 1017.20 1017.36 1017.53 1017.62 1017.69 1017.75 1017.82 1017.84 1017.98 1018.09 1018.18 1018.28 1018.33 1018.37 1018.42 1018.46 1018.54 1018.68 1018.64 1018.77 1018.62 1018.49 1018.58 1018.29 1018.25 1018.24 1018.22 1018.34 1018.39 1018.33 1018.25 1018.08 1017.96 1018.53
1013.89 1014.76 1015.43 1016.11 1016.23 1016.52 1016.80 1017.00 1017.25 1017.41 1017.59 1017.74 1017.80 1017.89 1017.98 1018.07 1018.01 1018.22 1018.32 1018.37 1018.49 1018.63 1018.74 1018.76 1018.75 1018.83 1018.89 1018.86 1018.78 1018.68 1018.69 1018.64 1018.55 1018.42 1018.16 1017.24 1017.40 1018.39 1018.42 1018.42 1018.38 1018.36 1018.67
1013.56 1014.53 1015.14 1016.41 1016.55 1016.82 1016.98 1017.24 1017.45 1017.67 1017.80 1017.89 1017.99 1018.11 1018.21 1018.28 1018.35 1018.43 1018.48 1018.58 1018.72 1018.81 1018.83 1018.87 1018.90 1018.93 1018.93 1018.83 1018.79 1018.80 1018.75 1018.64 1018.56 1018.46 1017.49 1017.47 1017.02 1018.16 1018.33 1018.40 1018.50 1018.59 1018.65
1013.63 1014.36 1015.77 1016.50 1016.71 1016.97 1017.24 1017.45 1017.60 1017.85 1017.96 1018.06 1018.19 1018.22 1018.36 1018.45 1018.46 1018.51 1018.54 1018.66 1018.79 1018.82 1018.77 1018.79 1018.85 1018.86 1018.82 1018.79 1018.73 1018.66 1018.66 1018.63 1018.48 1018.15 1017.38 1017.34 1017.31 1017.75 1018.35 1018.42 1018.54 1018.57 1018.59
1013.86 1014.15 1016.29 1016.67 1016.92 1017.22 1017.45 1017.66 1017.83 1018.02 1018.08 1018.21 1018.33 1018.37 1018.48 1018.66 1018.71 1018.72 1018.71 1018.75 1018.77 1018.74 1018.70 1018.71 1018.69 1018.66 1018.69 1018.65 1018.59 1018.58 1018.56 1018.56 1018.43 1017.05 1017.13 1017.36 1017.24 1017.96 1018.28 1018.45 1018.46 1018.45 1018.63
1014.18 1014.56 1015.91 1016.80 1017.03 1017.29 1017.62 1017.82 1018.01 1018.14 1018.19 1018.39 1018.49 1018.54 1018.63 1018.76 1018.81 1018.82 1018.76 1018.73 1018.70 1018.67 1018.62 1018.59 1018.51 1018.44 1018.48 1018.47 1018.43 1018.39 1018.41 1018.40 1017.81 1016.96 1017.00 1017.18 1016.95 1017.90 1018.30 1018.36 1018.34 1018.51 1018.63
1014.30 1014.60 1015.71 1016.93 1017.25 1017.43 1017.71 1017.91 1018.03 1018.17 1018.31 1018.45 1018.56 1018.65 1018.75 1018.82 1018.83 1018.83 1018.81 1018.70 1018.61 1018.59 1018.53 1018.50 1018.42 1018.33 1018.27 1018.26 1018.26 1018.21 1018.17 1018.12 1017.10 1016.48 1016.70 1016.47 1017.06 1017.72 1018.13 1018.27 1018.29 1018.34 1018.58
1014.54 1014.78 1015.44 1015.96 1017.07 1017.58 1017.83 1017.92 1018.07 1018.26 1018.39 1018.45 1018.66 1018.73 1018.77 1018.80 1018.76 1018.67 1018.61 1018.52 1018.48 1018.47 1018.40 1018.30 1018.19 1018.12 1018.02 1017.98 1017.96 1017.92 1017.84 1017.79 1017.28 1016.67 1016.38 1016.15 1017.00 1017.46 1017.80 1017.73 1017.96 1018.48 1018.65
1014.93 1015.04 1015.44 1015.77 1016.17 1016.28 1017.10 1017.90 1018.13 1018.31 1018.44 1018.50 1018.62 1018.68 1018.64 1018.54 1018.42 1018.33 1018.21 1018.20 1018.19 1018.12 1018.04 1017.92 1017.76 1017.74 1017.68 1017.57 1017.44 1017.42 1017.36 1017.30 1016.73 1016.74 1016.58 1016.18 1016.70 1017.15 1017.41 1017.45 1017.83 1018.30 1018.63
1015.04 1015.31 1015.62 1015.89 1016.43 1016.62 1016.64 1017.35 1018.03 1018.14 1018.30 1018.38 1018.24 1018.39 1018.22 1017.36 1017.41 1017.46 1017.68 1017.89 1017.94 1017.75 1017.68 1017.51 1017.35 1017.30 1017.31 1016.93 1016.74 1016.84 1016.91 1015.72 1016.14 1016.48 1016.17 1016.56 1016.75 1017.10 1017.16 1017.05 1017.05 1017.28 1017.96
1014.52 1014.89 1015.37 1015.77 1015.86 1016.46 1016.49 1017.05 1017.20 1017.10 1017.11 1017.27 1017.54 1017.84 1017.57 1017.43 1017.54 1017.69 1017.51 1017.52 1017.40 1017.34 1017.23 1016.96 1016.89 1016.78 1016.60 1015.24 1015.21 1015.92 1015.27 1015.24 1015.05 1015.17 1015.21 1016.17 1016.44 1016.61 1016.68 1016.74 1016.77 1016.97 1017.33
1014.14 1014.61 1015.16 1015.68 1016.12 1015.99 1016.26 1016.56 1016.71 1016.73 1016.91 1017.12 1017.69 1017.81 1017.45 1017.40 1017.15 1016.96 1016.67 1016.43 1016.30 1016.41 1015.71 1015.65 1015.55 1015.37 1015.27 1015.30 1015.11 1015.13 1015.23 1015.14 1014.75 1014.60 1014.60 1015.60 1015.97 1016.15 1016.15 1016.21 1016.28 1016.28 1016.70
1013.96 1014.42 1014.84 1015.37 1016.25 1016.40 1016.39 1016.65 1016.58 1016.71 1016.86 1016.96 1017.02 1017.51 1017.39 1017.01 1016.86 1016.84 1016.32 1016.44 1016.41 1016.08 1016.17 1015.82 1015.56 1015.65 1015.35 1015.20 1015.10 1015.10 1014.71 1014.41 1014.19 1014.16 1014.04 1014.86 1015.41 1015.67 1015.85 1015.96 1015.97 1016.08 1016.40
1013.85 1014.33 1014.79 1015.42 1016.25 1016.62 1017.00 1016.64 1016.78 1016.80 1016.70 1016.66 1016.89 1016.94 1017.06 1016.92 1016.80 1016.61 1016.49 1016.32 1016.17 1015.85 1015.55 1015.65 1015.58 1015.36 1015.24 1014.56 1014.48 1014.64 1014.13 1013.85 1013.73 1013.67 1013.60 1014.36 1014.98 1015.36 1015.60 1015.65 1015.59 1015.69 1015.93
1013.66 1014.15 1014.67 1015.33 1015.98 1016.52 1016.71 1016.94 1016.76 1016.65 1016.57 1016.71 1016.54 1016.54 1017.04 1016.88 1016.65 1016.42 1016.26 1015.86 1015.73 1015.67 1015.64 1015.58 1015.58 1015.53 1015.15 1014.27 1014.07 1013.88 1013.99 1013.62 1013.33 1013.53 1013.13 1013.11 1014.43 1015.02 1015.24 1015.24 1015.21 1015.25 1015.42
1013.41 1013.97 1014.40 1015.07 1015.51 1016.31 1016.59 1016.70 1016.67 1016.45 1016.13 1016.24 1016.13 1016.50 1016.73 1016.79 1016.55 1016.82 1016.09 1015.90 1015.53 1015.87 1016.01 1015.59 1015.40 1014.84 1014.52 1013.96 1013.79 1013.55 1013.32 1013.15 1013.12 1013.35 1013.34 1012.97 1013.58 1014.63 1015.00 1015.16 1015.08 1015.13 1014.97
1013.01 1013.85 1014.37 1014.68 1015.15 1015.86 1016.28 1016.36 1016.24 1016.06 1016.12 1015.84 1015.71 1015.78 1016.24 1016.45 1016.54 1016.39 1015.87 1015.53 1015.61 1015.63 1015.45 1015.06 1014.88 1014.69 1014.25 1013.96 1013.60 1013.35 1013.27 1012.97 1012.79 1012.99 1013.01 1013.37 1013.31 1013.53 1014.91 1015.19 1015.26 1015.25 1015.19
1013.09 1013.70 1014.33 1014.79 1015.04 1015.46 1015.96 1016.01 1016.08 1016.03 1016.04 1015.58 1015.52 1015.48 1015.87 1016.06 1015.95 1016.11 1015.54 1015.30 1015.79 1015.27 1015.11 1015.09 1014.80 1014.77 1014.40 1013.97 1013.51 1013.29 1013.06 1012.74 1012.76 1012.74 1013.04 1013.44 1013.75 1013.75 1013.56 1014.96 1015.01 1015.05 1015.04
1012.68 1013.50 1014.08 1014.50 1014.98 1015.39 1015.63 1015.97 1015.74 1015.63 1015.55 1015.44 1015.35 1015.26 1015.50 1015.36 1015.75 1015.82 1015.23 1015.50 1015.58 1015.09 1014.86 1015.17 1015.43 1014.92 1014.60 1013.79 1013.81 1012.96 1012.77 1012.69 1012.89 1012.72 1013.05 1013.38 1013.74 1014.02 1013.85 1014.37 1014.11 1014.33 1014.63
1012.26 1012.99 1013.66 1014.13 1014.62 1015.15 1015.26 1015.24 1015.22 1015.06 1015.09 1015.09 1015.02 1015.28 1015.47 1015.28 1015.35 1015.53 1014.99 1015.17 1015.28 1015.27 1015.46 1015.50 1015.11 1014.81 1014.52 1014.20 1013.75 1013.06 1012.06 1012.11 1012.75 1012.30 1013.09 1013.15 1013.60 1013.57 1013.95 1014.09 1013.87 1014.03 1013.74
1011.80 1012.55 1013.19 1013.71 1014.24 1014.80 1014.81 1014.93 1014.91 1014.92 1014.81 1014.70 1014.57 1014.91 1015.20 1015.13 1015.04 1015.09 1015.18 1014.97 1015.02 1014.98 1015.25 1015.23 1015.27 1014.98 1014.12 1014.10 1014.22 1013.32 1012.20 1011.59 1011.88 1012.35 1013.18 1013.32 1013.49 1013.38 1013.64 1013.83 1014.17 1014.24 1013.97
1011.13 1011.73 1012.49 1013.14 1013.65 1014.23 1014.40 1014.72 1015.03 1015.17 1015.15 1014.81 1014.56 1014.58 1014.30 1014.83 1014.78 1014.87 1014.92 1014.89 1014.95 1015.09 1014.38 1014.97 1014.97 1015.21 1015.04 1014.42 1014.55 1014.34 1013.02 1012.53 1012.40 1012.33 1013.08 1013.56 1013.98 1013.84 1014.04 1013.63 1014.01 1014.42 1014.38
1010.15 1010.85 1011.67 1012.52 1013.11 1013.60 1014.05 1014.08 1014.49 1014.27 1014.11 1013.86 1013.98 1013.83 1014.32 1014.51 1014.54 1014.47 1014.55 1014.53 1014.65 1014.41 1014.46 1014.57 1014.58 1014.80 1014.68 1014.60 1013.77 1014.13 1014.30 1014.08 1013.43 1012.35 1012.29 1012.97 1013.63 1013.88 1014.33 1014.14 1013.93 1013.83 1014.05
1009.34 1009.96 1010.74 1011.82 1012.57 1012.97 1013.46 1013.76 1014.10 1014.34 1013.90 1013.91 1013.78 1013.98 1014.31 1014.35 1014.27 1014.11 1014.08 1014.10 1014.29 1014.30 1013.98 1014.35 1014.43 1014.56 1014.12 1014.29 1013.71 1013.70 1013.22 1012.81 1013.66 1013.69 1012.59 1012.45 1012.78 1013.57 1014.24 1014.73 1014.38 1014.06 1014.23
1008.67 1009.39 1010.08 1011.15 1012.05 1012.64 1013.03 1013.55 1013.76 1013.79 1013.88 1013.52 1013.65 1013.69 1013.64 1013.41 1013.37 1013.58 1013.81 1013.81 1013.84 1013.98 1013.95 1014.02 1014.16 1014.30 1014.18 1014.08 1013.79 1013.66 1012.84 1012.72 1012.68 1013.48 1013.04 1012.79 1012.94 1013.67 1014.65 1014.61 1014.82 1014.47 1014.37
Wind_Speed
6 12 9 15 16 16 15 14 15 14 14 14 14 13 12 10 10 11 12 13 13 13 12 12 11 13 12 10 9 9 8 8 8 9 7 7 6 5 6 6 7 11 9
11 13 10 12 15 14 14 14 13 13 12 12 13 11 9 9 9 11 12 12 12 12 12 12 12 12 10 10 10 9 7 7 7 8 7 7 6 5 5 4 4 14 9
13 13 14 10 13 14 13 12 12 11 11 11 10 9 8 9 8 10 11 10 10 10 10 10 9 8 8 8 8 7 6 5 5 4 3 4 10 5 5 5 4 9 8
13 12 14 10 13 12 12 11 10 10 9 9 7 7 7 7 7 8 8 8 8 8 7 6 6 5 5 5 4 4 4 3 2 2 7 2 2 9 6 6 6 7 9
12 11 16 13 12 11 11 10 9 9 8 7 6 5 5 5 5 6 6 6 7 6 6 6 5 4 3 2 2 2 2 1 3 9 4 3 2 11 7 7 8 9 10
11 16 13 12 12 10 10 9 8 7 6 5 4 3 3 3 4 5 5 5 5 6 6 6 6 6 5 3 2 2 2 3 7 7 4 5 7 11 7 8 8 7 9
11 14 14 10 11 11 9 8 6 5 4 3 1 1 2 2 4 4 5 5 5 6 6 6 7 7 5 5 4 4 4 5 9 4 5 7 3 6 7 9 10 10 10
11 11 13 11 7 6 9 6 5 5 3 1 2 2 2 3 4 4 5 6 6 7 7 7 8 8 7 7 6 5 5 6 10 5 6 7 11 7 8 10 11 11 10
10 8 9 13 10 6 3 5 5 4 2 1 2 3 4 4 5 5 6 7 7 8 9 9 9 9 9 8 8 7 7 7 8 6 8 6 11 2 6 11 10 8 7
8 8 7 5 9 9 13 8 5 3 4 3 3 4 5 7 8 10 7 7 6 9 10 10 10 10 10 10 10 9 9 9 8 6 4 5 3 4 7 6 11 9 10
9 9 6 8 6 6 2 10 7 6 3 5 9 8 8 5 3 4 4 5 9 11 12 12 11 11 10 15 15 11 9 5 6 5 5 4 5 7 8 8 13 16 14
11 10 9 7 8 7 5 4 5 3 4 2 4 4 5 4 5 7 9 8 10 11 11 11 10 10 12 5 2 12 5 5 5 5 4 4 8 10 11 11 11 14 16
10 8 8 8 5 7 5 4 3 3 2 3 4 5 3 4 3 4 4 3 3 5 5 3 3 5 5 5 5 5 6 7 5 5 3 7 10 10 12 14 13 14 17
10 9 10 8 7 6 3 5 3 3 3 3 2 4 4 4 2 3 4 4 3 4 5 4 5 6 6 6 6 7 7 6 5 5 5 12 9 11 11 12 13 13 17
9 9 9 9 7 6 6 4 3 3 4 2 4 3 4 5 3 4 4 4 4 4 4 4 4 5 7 6 5 6 8 8 7 5 5 13 10 10 12 12 12 13 15
9 9 10 9 9 8 7 6 4 4 2 4 4 3 4 6 3 5 4 5 4 4 5 4 5 7 7 6 6 7 7 8 7 6 7 2 11 7 8 10 12 13 12
10 9 9 10 10 9 8 6 5 4 4 4 4 5 6 6 4 5 4 5 4 4 4 3 5 3 6 6 7 8 8 7 7 7 8 6 5 10 4 4 5 1 4
9 9 8 8 10 9 7 6 5 4 4 4 4 3 5 5 5 5 4 3 5 4 3 3 4 5 7 8 7 7 8 8 7 6 5 5 4 1 8 7 4 3 3
11 9 10 9 9 9 8 6 6 5 6 5 4 3 2 5 5 5 4 2 3 4 3 5 6 5 7 8 9 8 7 7 5 5 4 5 3 3 3 10 3 5 3
11 12 11 10 10 8 6 6 6 6 6 5 5 4 3 4 5 5 4 3 4 4 4 6 6 7 8 6 9 8 7 6 4 5 7 4 3 4 3 4 6 5 6
12 12 12 12 10 8 8 7 6 6 6 6 5 5 5 6 5 4 5 3 5 4 4 4 4 6 7 7 9 9 6 1 2 3 4 4 4 2 3 5 4 5 4
13 12 13 13 12 11 8 6 5 4 5 5 5 3 5 5 4 4 3 3 3 5 4 5 3 6 8 7 8 9 6 2 7 7 3 5 5 5 5 4 4 4 5
14 15 14 13 13 12 12 7 6 6 6 7 6 7 5 4 5 4 4 5 5 6 6 2 5 6 5 8 4 5 7 9 10 6 2 4 5 4 4 4 4 4 4
15 14 14 13 14 13 12 9 10 7 6 5 6 4 3 3 4 4 4 6 7 7 6 5 4 6 3 7 6 2 2 6 6 6 6 2 3 4 5 5 5 4 5
13 11 12 13 14 13 13 12 9 10 8 7 6 5 6 5 6 6 5 5 6 7 5 5 7 5 6 3 5 5 6 6 4 5 8 8 3 4 5 4 4 4 6
12 11 11 13 14 14 14 15 13 11 10 7 6 7 8 7 5 5 6 5 5 6 7 6 5 5 5 6 6 7 6 7 8 3 7 8 6 5 3 3 4 5 4
Wind_Direction
115 109 123 121 126 124 123 116 110 104 104 100 100 95 96 100 90 85 81 78 77 76 73 78 73 67 69 76 80 84 83 97 102 109 110 116 117 121 117 121 196 131 128
122 112 118 122 129 128 124 118 109 106 106 102 98 97 99 89 81 79 72 72 70 70 67 65 63 62 65 68 66 69 67 79 99 104 123 134 127 136 128 150 306 101 136
125 121 127 122 121 128 128 123 118 112 113 105 103 101 89 78 67 67 66 65 63 62 61 60 61 64 65 62 63 66 69 69 98 104 256 214 122 151 149 148 112 121 145
120 128 125 121 122 126 127 125 126 120 116 113 112 104 89 80 71 67 61 57 52 49 46 50 55 55 51 43 50 59 62 62 62 215 221 333 112 147 179 164 164 163 168
129 123 111 125 119 118 119 123 129 124 125 124 116 102 87 75 54 46 41 38 32 28 22 12 12 18 33 39 18 9 33 331 261 244 247 203 172 134 188 182 184 183 190
128 114 124 133 130 130 129 129 130 128 131 129 125 107 68 55 38 29 21 18 11 4 354 348 343 342 343 337 321 313 310 301 282 258 315 129 276 120 183 200 225 229 201
140 119 132 135 140 147 139 138 138 139 148 139 141 46 350 6 10 4 356 355 348 338 330 323 318 316 316 309 304 303 298 280 277 281 244 279 270 138 221 223 212 216 215
139 144 131 139 127 116 140 146 152 151 162 191 240 274 312 332 339 334 329 325 320 315 308 304 300 300 301 298 297 296 286 287 263 251 265 262 105 167 230 256 233 218 220
147 145 153 149 143 148 156 153 165 156 188 235 267 287 305 313 306 305 307 295 290 294 294 292 292 294 294 294 289 280 273 263 274 288 286 253 109 179 261 267 231 236 232
161 156 148 144 156 180 156 166 164 177 213 253 264 270 287 277 245 243 254 229 300 298 291 288 285 283 280 279 272 265 262 260 261 299 285 279 82 244 243 249 191 221 220
181 167 179 155 167 149 158 135 184 213 217 237 232 218 252 259 327 297 26 305 292 286 289 285 275 271 270 256 240 237 253 238 217 239 238 237 228 252 234 237 193 188 207
180 181 175 202 164 168 187 147 206 183 250 318 321 320 278 338 318 309 278 268 269 271 279 268 261 260 250 291 219 203 254 317 272 246 250 210 251 242 233 233 223 201 203
177 180 182 178 189 187 181 181 199 210 213 196 237 265 293 304 310 295 308 293 337 189 288 284 258 293 340 313 311 318 315 290 290 285 248 187 247 246 233 230 236 220 197
179 187 181 181 173 214 191 194 205 222 201 236 220 257 253 262 312 308 311 343 285 326 329 315 334 343 308 300 293 291 286 278 280 286 267 181 226 252 251 240 246 229 206
178 185 200 175 185 209 201 205 236 244 211 254 228 232 270 292 298 288 337 300 325 315 315 308 319 325 330 303 283 295 290 304 288 277 282 164 206 249 261 260 252 249 222
174 182 183 191 187 202 214 210 221 221 229 238 256 255 250 277 298 313 300 315 301 330 340 323 327 315 322 320 318 309 307 295 293 308 312 291 171 223 244 255 252 254 239
177 185 181 188 185 197 209 210 219 236 236 245 244 235 253 260 245 281 295 303 345 354 279 263 279 287 293 315 319 313 302 309 309 331 306 327 146 155 183 240 252 340 278
194 184 186 185 181 191 200 208 235 232 255 256 253 248 218 238 245 250 254 283 20 307 319 306 308 328 326 323 327 321 325 321 332 306 318 350 2 26 141 106 73 51 342
192 188 196 193 201 193 199 224 226 236 243 255 264 259 183 255 259 256 268 308 291 299 301 318 346 334 327 329 319 327 330 323 356 11 329 7 24 341 341 138 156 130 62
192 198 202 201 208 202 212 217 244 246 242 243 248 251 266 258 259 248 248 276 284 297 322 7 327 343 319 346 334 319 338 352 22 338 15 15 43 336 335 340 313 147 119
200 202 205 203 202 208 205 220 222 231 226 238 243 239 267 268 242 223 258 232 242 260 349 296 303 330 308 5 319 338 311 196 286 8 43 5 36 298 308 335 331 336 165
204 210 208 214 200 206 210 220 243 246 243 261 249 272 261 266 242 210 257 279 287 300 236 280 308 324 333 17 338 317 344 76 3 72 28 17 19 353 359 350 4 22 334
212 210 213 211 209 207 222 203 205 241 244 245 225 228 186 216 225 218 237 278 282 263 280 326 290 327 315 322 8 315 343 351 328 119 97 18 8 356 354 347 38 36 14
218 211 210 211 209 203 203 205 218 237 243 234 240 236 276 235 238 237 250 270 267 284 311 273 243 300 311 327 316 174 292 327 335 320 351 70 10 5 18 20 13 37 10
216 213 203 202 207 212 197 218 205 227 229 235 234 239 241 267 254 260 280 304 269 253 273 285 278 275 304 285 336 318 320 317 182 303 310 342 351 32 30 23 355 10 29
208 208 201 196 202 202 198 203 212 225 234 252 224 248 242 243 238 228 281 290 284 275 264 281 291 274 302 308 316 296 324 336 330 310 294 331 327 58 48 35 26 342 1